This is the latest recevied weather packets stored in our database for station/object KB4KY. If no packets are shown the sender has not sent any weather packets the latest 10 day(s).
| Time | Temp. | Humidity | Pressure | Rain* | Wind** | Luminosity | Snow |
|---|---|---|---|---|---|---|---|
| 1778042287 | 15.56° C | 95% | 1005.2 hPa | 0.51 mm | - | - | - |
| 1778041995 | 15.56° C | 95% | 1005.1 hPa | 0.51 mm | - | - | - |
| 1778041805 | 15.56° C | 95% | 1005.1 hPa | 0.51 mm | - | - | - |
| 1778041688 | 15.56° C | 95% | 1005.1 hPa | 0.51 mm | - | - | - |
| 1778041384 | 15.56° C | 95% | 1005.2 hPa | 0.25 mm | - | - | - |
| 1778041087 | 15° C | 95% | 1005.2 hPa | 0 mm | - | - | - |
| 1778040785 | 15.56° C | 95% | 1005.2 hPa | 0.25 mm | - | - | - |
| 1778040484 | 15.56° C | 95% | 1005.2 hPa | 0.25 mm | - | - | - |
| 1778040189 | 15° C | 95% | 1005.3 hPa | 1.02 mm | - | - | - |
| 1778039886 | 15.56° C | 95% | 1005.4 hPa | 2.29 mm | - | - | - |
| 1778039584 | 15° C | 95% | 1005.5 hPa | 2.54 mm | - | - | - |
| 1778039284 | 15.56° C | 95% | 1005.6 hPa | 2.79 mm | - | - | - |
| 1778038689 | 15.56° C | 95% | 1005.6 hPa | 3.3 mm | - | - | - |
| 1778038088 | 15° C | 95% | 1005.8 hPa | 3.81 mm | - | - | - |
| 1778037480 | 15.56° C | 95% | 1006.1 hPa | 4.06 mm | - | - | - |
| 1778037187 | 15.56° C | 95% | 1006.1 hPa | 3.81 mm | - | - | - |
| 1778036997 | 15.56° C | 95% | 1006.4 hPa | 3.56 mm | - | - | - |
| 1778036881 | 15.56° C | 95% | 1006.4 hPa | 3.56 mm | - | - | - |
| 1778036590 | 15.56° C | 93% | 1006.4 hPa | 3.05 mm | - | - | - |
| 1778036280 | 15.56° C | 92% | 1006.6 hPa | 1.78 mm | - | - | - |
| 1778035984 | 16.11° C | 92% | 1006.4 hPa | 1.52 mm | - | - | - |
| 1778035687 | 16.11° C | 92% | 1006.6 hPa | 1.27 mm | - | - | - |
| 1778035387 | 16.11° C | 90% | 1006.5 hPa | 0.76 mm | - | - | - |
| 1778035080 | 16.11° C | 90% | 1006.7 hPa | 0.76 mm | - | - | - |
| 1778034784 | 16.67° C | 89% | 1006.6 hPa | 0.51 mm | - | - | - |
* Rain latest hour (hover to see other rain measurements)
** Current wind speed in m/s (hover to see current wind gust speed)